Location: Pettit
(39.0209°N, 79.7181°W)
Time: 04:36:20
(UTC+00:00)

Envisat - Visible Passes

Search period start: 15 April 2026 00:00
Search period end: 25 April 2026 00:00
Orbit: 761 x 762 km, 98.4° (Epoch: 14 April)

Date Brightness Start Highest point End Pass type
(mag) Time Alt. Az. Time Alt. Az. Time Alt. Az.
15 Apr 3.0 08:03:57 10° N 08:08:38 75° NNW 08:08:38 75° NNW visible
16 Apr 4.1 07:26:22 10° NNE 07:30:29 40° ENE 07:30:29 40° ENE visible
16 Apr 4.3 09:05:59 10° NNW 09:09:47 22° WNW 09:10:37 21° W visible
17 Apr 5.2 06:49:40 10° NE 06:52:19 18° E 06:52:19 18° E visible
17 Apr 3.2 08:27:24 10° N 08:32:17 48° WNW 08:32:27 48° W visible
18 Apr 3.1 07:49:28 10° NNE 07:54:18 71° ENE 07:54:18 71° ENE visible
18 Apr 4.9 09:30:26 10° NNW 09:32:49 13° WNW 09:34:26 12° W visible
19 Apr 4.5 07:12:09 10° NE 07:16:08 30° E 07:16:08 30° E visible
19 Apr 3.9 08:51:06 10° N 08:55:26 29° WNW 08:56:16 28° W visible
20 Apr 5.5 06:36:12 10° ENE 06:37:59 13° E 06:37:59 13° E visible
20 Apr 2.9 08:12:48 10° N 08:17:50 67° WNW 08:18:07 65° W visible
21 Apr 3.5 07:35:04 10° NNE 07:39:57 52° E 07:39:57 52° E visible
21 Apr 4.6 09:15:08 10° NNW 09:18:30 18° WNW 09:20:04 16° W visible
22 Apr 4.9 06:58:05 10° NE 07:01:47 22° E 07:01:47 22° E visible
22 Apr 3.5 08:36:21 10° N 08:41:02 40° WNW 08:41:55 36° W visible
23 Apr 2.8 07:58:16 10° NNE 08:03:21 89° ESE 08:03:45 77° S visible
23 Apr 5.0 09:40:12 10° NW 09:41:30 11° WNW 09:42:47 10° WNW visible
24 Apr 4.0 07:20:47 10° NNE 07:25:28 37° E 07:25:35 37° E visible
24 Apr 4.2 09:00:09 10° NNW 09:04:10 24° WNW 09:05:43 21° W visible
